User: anonymous   Login
Location: Keeble Observatory
(37.7625°N, 77.4755°W)
Time: 09:27:53
(UTC-04:00)
Language:

Cosmos 1484 Rocket - Orbit

View from above orbital plane
View from above orbital plane
View from above satellite
View from above satellite

Ground track
Ground track

The orbit data is extracted from the following two-line orbital elements,

1 14208U 83075B   16239.52395973  .00000656  00000-0  43361-4 0  9990
2 14208  97.3531 256.0924 0041387  68.5855 291.9783 15.10036190803032
Epoch (UTC): 26 August 2016 12:34:30
Eccentricity: 0.0041387
inclination: 97.3531°
perigee height: 507 km
apogee height: 565 km
right ascension of ascending node: 256.0924°
argument of perigee: 68.5855°
revolutions per day: 15.10036190
mean anomaly at epoch: 291.9783°
orbit number at epoch: 80303

The dashed part of the orbit path shows where the satellite is in the earth's shadow,  

DLR